Location: Killarney
(45.9719°N, 81.5115°W)
Time: 03:46:14
(UTC-05:00)

ISS - Visible Passes

Search period start: 11 December 2023 00:00
Search period end: 21 December 2023 00:00
Orbit: 415 x 417 km, 51.6° (Epoch: 11 December)

Date Brightness Start Highest point End Pass type
(mag) Time Alt. Az. Time Alt. Az. Time Alt. Az.
15 Dec -0.9 07:08:34 10° S 07:11:10 22° SE 07:13:49 10° E visible
16 Dec -0.6 06:20:53 10° SSE 06:22:37 13° SE 06:24:20 10° ESE visible
17 Dec -2.8 07:06:52 10° SW 07:10:07 51° SE 07:13:23 10° ENE visible
18 Dec -2.0 06:18:24 10° SSW 06:21:23 31° SE 06:24:25 10° ENE visible
19 Dec -1.4 05:32:06 19° SSE 05:32:43 20° SE 05:35:13 10° E visible
19 Dec -3.8 07:05:48 10° WSW 07:09:08 73° NNW 07:12:29 10° ENE visible
20 Dec -3.7 06:18:56 33° SW 06:20:17 75° SSE 06:23:37 10° ENE visible
